TimeCST,TemperatureF,Dew PointF,Humidity,Sea Level PressureIn,VisibilityMPH,Wind Direction,Wind SpeedMPH,Gust SpeedMPH,PrecipitationIn,Events,Conditions,WindDirDegrees,DateUTC
12:15 AM,26.6,15.8,64,30.25,10.0,South,12.7,-,N/A,,Overcast,190,2013-11-25 06:15:00
12:35 AM,26.6,15.8,64,30.24,10.0,SSW,11.5,-,N/A,,Overcast,200,2013-11-25 06:35:00
12:55 AM,26.6,15.8,64,30.23,10.0,South,10.4,-,N/A,,Overcast,190,2013-11-25 06:55:00
1:15 AM,26.6,15.8,64,30.23,10.0,SSW,11.5,17.3,N/A,,Overcast,200,2013-11-25 07:15:00
1:35 AM,26.6,17.6,69,30.22,10.0,South,15.0,-,N/A,,Overcast,190,2013-11-25 07:35:00
1:55 AM,26.6,17.6,69,30.22,10.0,South,13.8,-,N/A,,Overcast,190,2013-11-25 07:55:00
2:15 AM,26.6,17.6,69,30.22,10.0,SSW,11.5,-,N/A,,Overcast,200,2013-11-25 08:15:00
2:35 AM,26.6,17.6,69,30.21,10.0,South,11.5,-,N/A,,Overcast,190,2013-11-25 08:35:00
2:55 AM,26.6,17.6,69,30.21,10.0,South,11.5,-,N/A,,Overcast,190,2013-11-25 08:55:00
3:15 AM,26.6,17.6,69,30.20,10.0,SSW,9.2,-,N/A,,Overcast,200,2013-11-25 09:15:00
3:35 AM,26.6,17.6,69,30.20,10.0,SSW,8.1,-,N/A,,Overcast,200,2013-11-25 09:35:00
3:55 AM,26.6,17.6,69,30.18,10.0,SSW,10.4,-,N/A,,Overcast,200,2013-11-25 09:55:00
4:15 AM,26.6,17.6,69,30.17,10.0,SSW,11.5,-,N/A,,Overcast,200,2013-11-25 10:15:00
4:35 AM,26.6,17.6,69,30.17,10.0,SSW,12.7,-,N/A,,Overcast,200,2013-11-25 10:35:00
4:55 AM,26.6,17.6,69,30.17,10.0,SSW,11.5,17.3,N/A,,Overcast,200,2013-11-25 10:55:00
5:15 AM,26.6,17.6,69,30.17,10.0,SSW,9.2,-,N/A,,Overcast,200,2013-11-25 11:15:00
5:35 AM,26.6,17.6,69,30.16,10.0,SSW,10.4,-,N/A,,Overcast,210,2013-11-25 11:35:00
5:55 AM,26.6,17.6,69,30.16,10.0,SSW,11.5,-,N/A,,Overcast,210,2013-11-25 11:55:00
6:15 AM,26.6,17.6,69,30.15,10.0,SSW,11.5,-,N/A,,Overcast,200,2013-11-25 12:15:00
6:35 AM,26.6,17.6,69,30.15,10.0,SSW,9.2,-,N/A,,Overcast,210,2013-11-25 12:35:00
6:55 AM,26.6,17.6,69,30.16,10.0,SSW,9.2,-,N/A,,Mostly Cloudy,210,2013-11-25 12:55:00
7:15 AM,26.6,17.6,69,30.15,10.0,SSW,10.4,-,N/A,,Mostly Cloudy,210,2013-11-25 13:15:00
7:35 AM,28.4,19.4,69,30.16,10.0,SSW,12.7,-,N/A,,Overcast,210,2013-11-25 13:35:00
7:55 AM,28.4,19.4,69,30.16,10.0,SSW,13.8,-,N/A,,Overcast,210,2013-11-25 13:55:00
8:15 AM,28.4,19.4,69,30.16,10.0,SSW,12.7,-,N/A,,Overcast,210,2013-11-25 14:15:00
8:35 AM,28.4,19.4,69,30.16,10.0,SSW,12.7,-,N/A,,Overcast,210,2013-11-25 14:35:00
8:55 AM,30.2,19.4,64,30.17,10.0,SW,10.4,23.0,N/A,,Overcast,230,2013-11-25 14:55:00
9:15 AM,30.2,19.4,64,30.16,10.0,SW,16.1,-,N/A,,Overcast,230,2013-11-25 15:15:00
9:35 AM,32.0,21.2,64,30.16,10.0,SW,13.8,23.0,N/A,,Mostly Cloudy,230,2013-11-25 15:35:00
9:55 AM,32.0,21.2,64,30.17,10.0,WSW,17.3,-,N/A,,Mostly Cloudy,240,2013-11-25 15:55:00
10:15 AM,32.0,21.2,64,30.17,10.0,WSW,15.0,-,N/A,,Mostly Cloudy,240,2013-11-25 16:15:00
10:35 AM,32.0,23.0,69,30.17,10.0,WSW,15.0,-,N/A,,Scattered Clouds,250,2013-11-25 16:35:00
10:55 AM,33.8,23.0,65,30.17,10.0,WSW,13.8,-,N/A,,Mostly Cloudy,250,2013-11-25 16:55:00
11:15 AM,33.8,23.0,65,30.16,10.0,WSW,13.8,-,N/A,,Mostly Cloudy,240,2013-11-25 17:15:00
11:35 AM,33.8,23.0,65,30.16,10.0,WSW,11.5,-,N/A,,Mostly Cloudy,250,2013-11-25 17:35:00
11:55 AM,33.8,24.8,70,30.15,10.0,WSW,10.4,16.1,N/A,,Scattered Clouds,240,2013-11-25 17:55:00
12:15 PM,35.6,24.8,65,30.14,10.0,SW,15.0,-,N/A,,Partly Cloudy,230,2013-11-25 18:15:00
12:35 PM,35.6,24.8,65,30.14,10.0,SW,11.5,-,N/A,,Clear,230,2013-11-25 18:35:00
12:55 PM,35.6,24.8,65,30.13,10.0,SW,12.7,-,N/A,,Clear,230,2013-11-25 18:55:00
1:15 PM,35.6,26.6,70,30.12,10.0,WSW,11.5,-,N/A,,Clear,240,2013-11-25 19:15:00
1:35 PM,37.4,26.6,65,30.12,10.0,WSW,9.2,-,N/A,,Clear,250,2013-11-25 19:35:00
1:55 PM,37.4,26.6,65,30.12,10.0,WSW,9.2,-,N/A,,Partly Cloudy,250,2013-11-25 19:55:00
2:15 PM,37.4,26.6,65,30.12,10.0,SW,9.2,-,N/A,,Scattered Clouds,230,2013-11-25 20:15:00
2:35 PM,39.2,28.4,65,30.12,10.0,WSW,9.2,-,N/A,,Clear,240,2013-11-25 20:35:00
2:55 PM,39.2,28.4,65,30.12,10.0,WSW,9.2,-,N/A,,Clear,250,2013-11-25 20:55:00
3:35 PM,39.2,28.4,65,30.12,10.0,WSW,4.6,-,N/A,,Clear,250,2013-11-25 21:35:00
3:55 PM,37.4,28.4,70,30.13,10.0,WSW,3.5,-,N/A,,Clear,250,2013-11-25 21:55:00
4:15 PM,35.6,28.4,75,30.13,10.0,Calm,Calm,-,N/A,,Scattered Clouds,0,2013-11-25 22:15:00
4:35 PM,33.8,28.4,81,30.13,10.0,SSW,3.5,-,N/A,,Clear,210,2013-11-25 22:35:00
4:55 PM,32.0,26.6,80,30.13,10.0,Calm,Calm,-,N/A,,Clear,0,2013-11-25 22:55:00
5:15 PM,30.2,26.6,86,30.14,10.0,Calm,Calm,-,N/A,,Clear,0,2013-11-25 23:15:00
5:35 PM,32.0,26.6,80,30.14,10.0,Calm,Calm,-,N/A,,Clear,0,2013-11-25 23:35:00
5:55 PM,30.2,26.6,86,30.15,10.0,SW,3.5,-,N/A,,Clear,230,2013-11-25 23:55:00
6:15 PM,28.4,24.8,86,30.15,10.0,Calm,Calm,-,N/A,,Clear,0,2013-11-26 00:15:00
6:35 PM,30.2,26.6,86,30.15,10.0,Calm,Calm,-,N/A,,Unknown,0,2013-11-26 00:35:00
6:55 PM,26.6,24.8,93,30.16,10.0,Calm,Calm,-,N/A,,Scattered Clouds,0,2013-11-26 00:55:00
7:15 PM,30.2,26.6,86,30.16,10.0,West,3.5,-,N/A,,Mostly Cloudy,280,2013-11-26 01:15:00
7:35 PM,30.2,26.6,86,30.16,10.0,WNW,3.5,-,N/A,,Mostly Cloudy,300,2013-11-26 01:35:00
7:55 PM,28.4,26.6,93,30.17,8.0,Calm,Calm,-,N/A,,Mostly Cloudy,0,2013-11-26 01:55:00
8:15 PM,30.2,26.6,86,30.17,10.0,Calm,Calm,-,N/A,,Mostly Cloudy,0,2013-11-26 02:15:00
8:35 PM,30.2,26.6,86,30.17,10.0,Calm,Calm,-,N/A,,Mostly Cloudy,0,2013-11-26 02:35:00
8:55 PM,28.4,26.6,93,30.18,10.0,Calm,Calm,-,N/A,,Mostly Cloudy,0,2013-11-26 02:55:00
9:15 PM,30.2,26.6,86,30.18,10.0,Calm,Calm,-,N/A,,Scattered Clouds,0,2013-11-26 03:15:00
9:35 PM,32.0,26.6,80,30.18,10.0,NW,4.6,-,N/A,,Scattered Clouds,310,2013-11-26 03:35:00
9:55 PM,32.0,26.6,80,30.19,10.0,WNW,6.9,-,N/A,,Partly Cloudy,300,2013-11-26 03:55:00
10:15 PM,32.0,26.6,80,30.19,10.0,WNW,6.9,-,N/A,,Scattered Clouds,300,2013-11-26 04:15:00
10:35 PM,32.0,26.6,80,30.19,10.0,WNW,6.9,-,N/A,,Scattered Clouds,300,2013-11-26 04:35:00
10:55 PM,30.2,26.6,86,30.18,10.0,WNW,5.8,-,N/A,,Scattered Clouds,290,2013-11-26 04:55:00
11:15 PM,30.2,24.8,80,30.18,10.0,WNW,6.9,-,N/A,,Scattered Clouds,300,2013-11-26 05:15:00
11:35 PM,30.2,24.8,80,30.18,10.0,WNW,8.1,-,N/A,,Partly Cloudy,300,2013-11-26 05:35:00
11:55 PM,28.4,24.8,86,30.19,10.0,WNW,6.9,-,N/A,,Clear,300,2013-11-26 05:55:00